Location: Lake Crest
(37.6062°N, 88.9176°W)
Time: 10:12:48
(UTC+00:00)

NOSS 3-2 (A) - Pass Details

Date: 15 December 2019
Orbit: 814 x 1394 km, 63.4° (Epoch: 18 January)

Event Time Altitude Azimuth Distance (km) Brightness Sun altitude
Rises 10:45:50 0° 195° (SSW) 3,334 6.3 -26.4°
Reaches altitude 10° 10:48:15 10° 190° (S) 2,430 5.6 -25.9°
Maximum altitude 10:53:36 50° 115° (ESE) 1,105 4.1 -24.9°
Drops below altitude 10° 10:59:32 10° 42° (NE) 2,693 6.2 -23.7°
Sets 11:02:19 0° 38° (NE) 3,730 6.9 -23.2°
